When you browse on this site, cookies collect data to enhance your experience and personalize the content and advertising you see.
Visit our Privacy Policy to learn more. By continuing to use the site, you agree to this use of cookies and data.
  • In Hungary
  • List of Countries
  • For 7 days
  • Water Temperature
  • Weather Map
  • News
  • Weather Widgets
  • user-avatar
    Login

    Hourly Weather Shahtnyy

    Today, 1 June, Monday

    Time Temperature Precipitation Wind Pressure Humidity
    00:00 +18°C° 0 mm 4 mps 744 mmHg 65%
    01:00 +17°C° 0 mm 4 mps 744 mmHg 67%
    02:00 +17°C° 0 mm 3 mps 744 mmHg 70%
    03:00 +16°C° 0 mm 3 mps 745 mmHg 72%
    04:00 +16°C° 0 mm 3 mps 744 mmHg 73%
    05:00 +17°C° 0 mm 3 mps 745 mmHg 70%
    06:00 +18°C° 0 mm 3 mps 745 mmHg 68%
    07:00 +19°C° 0 mm 4 mps 745 mmHg 65%
    08:00 +20°C° 0 mm 4 mps 745 mmHg 60%
    09:00 +21°C° 0 mm 5 mps 746 mmHg 55%
    10:00 +23°C° 0 mm 6 mps 746 mmHg 49%
    11:00 +23°C° 0 mm 5 mps 746 mmHg 47%
    12:00 +25°C° 0 mm 5 mps 746 mmHg 44%
    13:00 +26°C° 0 mm 5 mps 746 mmHg 42%
    14:00 +26°C° 0 mm 5 mps 746 mmHg 41%
    15:00 +26°C° 0 mm 5 mps 746 mmHg 40%
    16:00 +26°C° 0 mm 4 mps 746 mmHg 39%
    17:00 +25°C° 0 mm 4 mps 746 mmHg 42%
    18:00 +25°C° 0 mm 3 mps 746 mmHg 46%
    19:00 +24°C° 0 mm 2 mps 746 mmHg 50%
    20:00 +21°C° 0 mm 2 mps 746 mmHg 53%
    21:00 +20°C° 0 mm 2 mps 746 mmHg 56%
    22:00 +19°C° 0 mm 1 mps 746 mmHg 59%
    23:00 +18°C° 0 mm 1 mps 746 mmHg 60%

    Tomorrow, 2 June, Tuesday

    Time Temperature Precipitation Wind Pressure Humidity
    00:00 +18°C° 0 mm 1 mps 746 mmHg 61%
    01:00 +18°C° 0 mm 1 mps 746 mmHg 62%
    02:00 +16°C° 0 mm 1 mps 746 mmHg 64%
    03:00 +16°C° 0 mm 1 mps 746 mmHg 66%
    04:00 +14°C° 0 mm 0 mps 746 mmHg 67%
    05:00 +18°C° 0 mm 1 mps 746 mmHg 63%
    06:00 +20°C° 0 mm 1 mps 746 mmHg 59%
    07:00 +21°C° 0 mm 1 mps 746 mmHg 55%
    08:00 +23°C° 0 mm 2 mps 746 mmHg 51%
    09:00 +24°C° 0 mm 2 mps 747 mmHg 47%
    10:00 +25°C° 0 mm 3 mps 747 mmHg 43%
    11:00 +26°C° 0 mm 3 mps 746 mmHg 41%
    12:00 +27°C° 0 mm 2 mps 746 mmHg 38%
    13:00 +27°C° 0 mm 2 mps 746 mmHg 35%
    14:00 +28°C° 0 mm 2 mps 746 mmHg 34%
    15:00 +28°C° 0 mm 3 mps 746 mmHg 34%
    16:00 +28°C° 0 mm 3 mps 746 mmHg 34%
    17:00 +27°C° 0 mm 3 mps 745 mmHg 39%
    18:00 +26°C° 0 mm 3 mps 745 mmHg 44%
    19:00 +25°C° 0 mm 3 mps 745 mmHg 49%
    20:00 +24°C° 0 mm 3 mps 745 mmHg 52%
    21:00 +21°C° 0 mm 4 mps 745 mmHg 54%
    22:00 +20°C° 0 mm 4 mps 745 mmHg 57%
    23:00 +20°C° 0 mm 4 mps 745 mmHg 59%

    Day after tomorrow, 3 June, Wednesday

    Time Temperature Precipitation Wind Pressure Humidity
    00:00 +19°C° 0 mm 5 mps 744 mmHg 61%
    01:00 +19°C° 0 mm 5 mps 744 mmHg 64%
    02:00 +17°C° 0 mm 5 mps 744 mmHg 65%
    03:00 +18°C° 0 mm 4 mps 744 mmHg 66%
    04:00 +18°C° 0 mm 4 mps 744 mmHg 67%
    05:00 +18°C° 0 mm 4 mps 744 mmHg 65%
    06:00 +19°C° 0 mm 4 mps 743 mmHg 62%
    07:00 +20°C° 0 mm 4 mps 743 mmHg 60%
    08:00 +22°C° 0 mm 4 mps 743 mmHg 55%
    09:00 +25°C° 0 mm 4 mps 743 mmHg 50%
    10:00 +26°C° 0 mm 5 mps 743 mmHg 45%
    11:00 +27°C° 0 mm 5 mps 743 mmHg 42%
    12:00 +28°C° 0 mm 5 mps 743 mmHg 39%
    13:00 +29°C° 0 mm 5 mps 742 mmHg 36%
    14:00 +29°C° 0 mm 6 mps 742 mmHg 37%
    15:00 +30°C° 0 mm 6 mps 742 mmHg 38%
    16:00 +30°C° 0 mm 6 mps 742 mmHg 38%
    17:00 +29°C° 0 mm 5 mps 742 mmHg 43%
    18:00 +28°C° 0 mm 5 mps 742 mmHg 48%
    19:00 +27°C° 0 mm 5 mps 741 mmHg 53%
    20:00 +25°C° 0.1 mm 5 mps 741 mmHg 58%
    21:00 +23°C° 0.1 mm 5 mps 741 mmHg 64%
    22:00 +21°C° 0.1 mm 6 mps 741 mmHg 69%
    23:00 +21°C° 0 mm 6 mps 741 mmHg 69%

    4 June, Thursday

    Time Temperature Precipitation Wind Pressure Humidity
    00:00 +21°C° 0 mm 6 mps 741 mmHg 69%
    01:00 +20°C° 0 mm 6 mps 741 mmHg 69%
    02:00 +20°C° 0 mm 5 mps 741 mmHg 67%
    03:00 +19°C° 0 mm 5 mps 741 mmHg 66%
    04:00 +19°C° 0 mm 5 mps 741 mmHg 65%
    05:00 +19°C° 0.2 mm 6 mps 741 mmHg 65%
    06:00 +18°C° 0.2 mm 7 mps 741 mmHg 65%
    07:00 +18°C° 0.2 mm 8 mps 741 mmHg 66%
    08:00 +20°C° 0.2 mm 8 mps 741 mmHg 63%
    09:00 +21°C° 0.2 mm 9 mps 741 mmHg 61%
    10:00 +23°C° 0.2 mm 9 mps 741 mmHg 58%
    11:00 +23°C° 0.2 mm 9 mps 741 mmHg 56%
    12:00 +24°C° 0.2 mm 8 mps 741 mmHg 55%
    13:00 +26°C° 0.2 mm 8 mps 741 mmHg 53%
    14:00 +26°C° 0 mm 7 mps 741 mmHg 53%
    15:00 +27°C° 0 mm 7 mps 741 mmHg 52%
    16:00 +27°C° 0 mm 6 mps 741 mmHg 52%
    17:00 +26°C° 0.3 mm 6 mps 741 mmHg 55%
    18:00 +24°C° 0.3 mm 6 mps 741 mmHg 58%
    19:00 +23°C° 0.3 mm 6 mps 742 mmHg 61%
    20:00 +22°C° 0.5 mm 6 mps 742 mmHg 63%
    21:00 +21°C° 0.5 mm 7 mps 742 mmHg 65%
    22:00 +18°C° 0.5 mm 7 mps 742 mmHg 67%
    23:00 +18°C° 0.3 mm 7 mps 742 mmHg 66%

    5 June, Friday

    Time Temperature Precipitation Wind Pressure Humidity
    00:00 +18°C° 0.3 mm 7 mps 742 mmHg 66%
    01:00 +17°C° 0.3 mm 7 mps 742 mmHg 66%
    02:00 +17°C° 0.3 mm 7 mps 743 mmHg 65%
    03:00 +16°C° 0.3 mm 7 mps 743 mmHg 64%
    04:00 +16°C° 0.3 mm 8 mps 743 mmHg 63%
    05:00 +16°C° 0.1 mm 8 mps 743 mmHg 62%
    06:00 +16°C° 0.1 mm 8 mps 744 mmHg 62%
    07:00 +16°C° 0.1 mm 8 mps 744 mmHg 61%
    08:00 +17°C° 0.1 mm 8 mps 744 mmHg 59%
    09:00 +18°C° 0.1 mm 8 mps 744 mmHg 56%
    10:00 +19°C° 0.1 mm 9 mps 745 mmHg 54%
    11:00 +21°C° 0.1 mm 8 mps 745 mmHg 52%
    12:00 +22°C° 0.1 mm 8 mps 745 mmHg 50%
    13:00 +23°C° 0.1 mm 7 mps 745 mmHg 48%
    14:00 +23°C° 0 mm 7 mps 745 mmHg 49%
    15:00 +22°C° 0 mm 7 mps 745 mmHg 51%
    16:00 +22°C° 0 mm 6 mps 745 mmHg 52%
    17:00 +21°C° 0 mm 7 mps 745 mmHg 52%
    18:00 +20°C° 0 mm 8 mps 745 mmHg 52%
    19:00 +18°C° 0 mm 8 mps 745 mmHg 52%
    20:00 +18°C° 0 mm 8 mps 746 mmHg 52%
    21:00 +18°C° 0 mm 8 mps 746 mmHg 51%
    22:00 +17°C° 0 mm 8 mps 746 mmHg 50%
    23:00 +17°C° 0 mm 8 mps 746 mmHg 50%

    6 June, Saturday

    Time Temperature Precipitation Wind Pressure Humidity
    00:00 +17°C° 0 mm 7 mps 746 mmHg 50%
    01:00 +17°C° 0 mm 7 mps 746 mmHg 50%
    02:00 +16°C° 0.1 mm 6 mps 746 mmHg 52%
    03:00 +16°C° 0.1 mm 6 mps 746 mmHg 55%
    04:00 +15°C° 0.1 mm 6 mps 746 mmHg 58%
    05:00 +15°C° 0.2 mm 6 mps 746 mmHg 61%
    06:00 +15°C° 0.2 mm 5 mps 746 mmHg 64%
    07:00 +15°C° 0.2 mm 5 mps 746 mmHg 67%
    08:00 +16°C° 0.5 mm 5 mps 746 mmHg 67%
    09:00 +16°C° 0.5 mm 5 mps 746 mmHg 66%
    10:00 +18°C° 0.5 mm 4 mps 746 mmHg 66%
    11:00 +19°C° 0.1 mm 4 mps 746 mmHg 63%
    12:00 +20°C° 0.1 mm 5 mps 747 mmHg 60%
    13:00 +21°C° 0.1 mm 5 mps 747 mmHg 57%
    14:00 +21°C° 0.5 mm 5 mps 747 mmHg 58%
    15:00 +21°C° 0.5 mm 5 mps 747 mmHg 59%
    16:00 +21°C° 0.5 mm 5 mps 747 mmHg 60%
    17:00 +20°C° 0.4 mm 4 mps 747 mmHg 64%
    18:00 +19°C° 0.4 mm 4 mps 747 mmHg 68%
    19:00 +19°C° 0.4 mm 4 mps 747 mmHg 72%
    20:00 +17°C° 0.1 mm 4 mps 747 mmHg 76%
    21:00 +15°C° 0.1 mm 4 mps 747 mmHg 79%
    22:00 +14°C° 0.1 mm 3 mps 747 mmHg 82%
    23:00 +13°C° 0 mm 3 mps 747 mmHg 82%
    Show more